SCP
0 0 0 0 0 0 0 0 0 0 0 0 0 0 0 0 0 0 0 0 0 0 0 0 0 0 0 0 0 0 0 0 0 0 0 0 0 0 0 0 0 0 0 0 0 0 0 0 0 0 0 0 0 0
0 0 0 0 0 0 0 0 0 0 0 0 0 0 0 0 0 0 0 0 0 0 0 0 0 0 0 0 0 0 0 0 0 0 0 0 0 0 0 0 0 0 0 0 0 0 0 0 0 0 0 0 0 0
0 0 0 0 0 0 0 0 0 0 0 0 0 0 0 0 0 0 0 0 0 0 0 0 0 0 0 -0 0 0 0 0 0 0 0 0 0 0 0 0 0 -0 0 0 0 0 0 0 0 -0 0 0 0 0
0 0 0 0 0 0 0 0 0 0 0 0 0 0 0 0 0 0 0 0 0 0 0 0 0 0 0 0 -0 0 0 0 0 0 0 0 0 -0 0 0 0 0 0 0 0 0 0 0 0 0 0 0 0 -0
0 0 0 0 0 0 0 0 0 0 0 0 0 0 0 0 0 0 0 0 0 0 0 0 0 0 0 0 0 0 0 0 0 0 0 0 0 0 0 0 -0 -0 -0 -0 -0 -0 -0 -0 -0 0 -0 -0 -0 -0
0 0 0 0 0 0 0 0 0 0 0 0 0 0 0 0 0 0 0 0 0 0 0 0 0 0 0 0 0 0 0 0 0 0 0 0 -0 0 0 0 0 0 0 0 -0 0 -0 0 -0 0 0 0 0 0
0 0 0 0 0 -0 0 0 0 0 0 0 0 0 0 0 0 0 0 0 0 0 0 0 0 0 0 0 0 0 0 0 0 0 0 0 0 0 0 0 0 0 0 0 0 0 0 0 0 0 0 0 0 0
0 0 0 -0 -0 0 0 0 0 0 0 0 0 0 0 0 0 0 0 0 0 0 0 0 0 0 0 0 0 0 0 0 0 0 0 0 0 0 0 0 0 0 0 0 0 0 0 0 0 0 -0 -0 0 0
0 -0 -0 -0 0 0 0 0 0 0 0 0 0 0 0 0 0 0 0 0 0 0 0 0 0 0 0 0 0 0 0 0 0 0 0 0 0 0 0 0 0 0 0 0 0 0 -0 0 0 0 0 0 0 0
0 -0 0 0 0 0 0 0 0 0 0 0 0 0 0 0 0 0 0 0 0 0 0 0 0 0 0 0 0 0 0 0 0 0 0 0 0 0 0 0 0 0 0 0 0 -0 -0 -0 -0 -0 0 0 0 0
0 0 0 0 0 0 -0 0 0 0 0 0 0 0 0 0 0 0 0 0 0 0 0 0 0 0 0 0 0 0 0 0 0 0 0 0 0 0 0 0 0 0 0 0 0 -0 -0 -0 0 -0 0 0 -0 -0
0 0 0 0 0 0 0 0 0 0 0 0 0 0 0 0 0 0 0 0 0 0 0 0 0 0 0 0 0 0 0 0 0 0 0 0 0 0 0 0 0 -0 0 0 -0 -0 -0 -0 -0 -0 0 -0 -0 0
-0 -0 -0 0 -0 0 0 0 0 0 0 0 0 0 0 0 0 0 0 0 0 0 0 0 0 0 0 0 0 0 0 0 0 0 0 0 0 0 0 0 -0 -0 -0 -0 -0 -0 -0 -0 -0 -0 0 0 0 0
-0 -0 -0 0 0 0 0 0 0 0 0 0 0 0 0 0 0 0 0 0 0 0 0 0 0 0 0 0 0 0 0 0 0 0 0 0 0 0 0 0 -0 -0 -0 -0 -0 -0 -0 -0 -0 0 0 -0 -0 -0
-0 -0 0 0 0 0 0 0 0 0 0 0 0 0 0 0 0 0 0 0 0 0 0 0 0 0 0 0 0 0 0 0 0 0 0 0 0 0 -0 -0 -0 -0 -0 -0 -0 -0 -0 -0 -0 -0 0 0 0 0
0 0 0 0 0 0 0 0 0 0 0 0 0 0 0 0 0 0 0 0 0 0 0 0 0 0 0 0 0 0 0 0 0 0 0 0 0 -0 -0 -0 -0 -0 -0 -0 -0 -0 -0 -0 -0 -0 0 0 0 0
0 0 0 0 0 0 0 0 0 0 0 0 0 0 0 0 0 0 0 0 0 0 0 0 0 0 0 0 0 0 0 0 0 0 0 -0 -0 -0 -0 -0 -0 -0 -0 -0 -0 -0 -0 -0 0 0 0 0 0 0
0 0 0 0 0 0 0 0 0 0 0 0 0 0 0 0 0 0 0 0 0 0 0 0 0 0 0 0 0 0 0 0 0 0 -0 -0 -0 -0 -0 0 0 0 0 0 0 -0 -0 -0 -0 -0 0 0 0 0
0 0 0 0 0 0 0 0 0 0 0 0 0 0 0 0 0 0 0 0 0 0 0 0 0 0 0 0 0 0 0 0 -0 -0 -0 -0 -0 0 0 0 0 0 0 -0 -0 -0 -0 -0 -0 0 -0 -0 -0 -0
0 0 0 0 0 0 0 0 0 0 0 0 0 0 0 0 0 0 0 0 0 0 0 0 0 0 0 0 0 -0 -0 -0 -0 -0 -0 -0 -0 0 0 0 0 -0 0 0 0 -0 0 0 0 0 0 -0 -0 0
0 0 0 0 0 0 0 0 0 0 0 0 0 0 0 0 0 0 0 0 0 0 0 0 0 0 0 0 -0 -0 -0 -0 -0 -0 0 -0 -0 -0 -0 0 0 0 0 0 0 -0 -0 -0 -0 0 0 0 0 0
0 0 0 0 0 0 0 0 0 0 0 0 0 0 0 0 0 0 0 0 0 0 0 0 -0 -0 -0 -0 -0 -0 0 0 -0 0 -0 -0 -0 0 0 0 0 0 0 0 -0 -0 -0 -0 -0 -0 -0 -0 -0 -0
0 0 0 0 0 0 0 0 0 0 0 0 0 0 0 0 0 0 0 0 0 0 -0 -0 -0 -0 -0 -0 0 0 0 -0 0 0 0 0 0 0 0 0 0 0 0 0 0 0 -0 -0 -0 -0 -0 -0 -0 -0
0 0 0 0 0 0 0 0 0 0 0 0 0 0 0 0 0 0 0 -0 -0 -0 -0 -0 -0 -0 0 0 0 -0 -0 0 0 0 0 0 0 0 0 0 0 0 0 0 0 0 0 0 0 0 0 0 -0 -0
0 0 0 0 0 0 0 0 0 0 0 0 0 0 0 0 0 0 -0 -0 -0 -0 -0 0 0 0 -0 -0 0 0 0 0 0 0 0 0 0 0 0 0 0 0 0 -0 -0 -0 0 0 0 0 0 0 0 0
-0 0 0 0 0 0 0 0 0 0 0 0 0 0 -0 -0 -0 -0 -0 -0 -0 -0 0 0 0 0 0 0 0 0 0 0 0 0 0 0 0 0 0 0 0 0 0 0 0 0 0 0 0 0 0 0 0 0
-0 0 0 0 0 0 0 0 0 0 0 0 0 0 -0 -0 -0 -0 -0 0 0 0 0 0 0 0 0 0 0 0 0 0 0 0 0 0 -0 -0 0 0 0 0 0 0 0 0 0 0 0 0 0 0 0 0
0 0 0 0 0 0 0 0 0 0 0 0 -0 -0 -0 -0 0 0 0 0 0 0 0 0 0 0 0 0 0 0 0 0 -0 -0 -0 -0 0 0 -0 -0 0 0 0 0 0 0 0 0 0 0 0 0 0 0
0 0 0 0 0 0 0 0 0 0 -0 -0 -0 -0 -0 -0 -0 -0 -0 0 0 -0 0 -0 0 0 0 0 0 0 -0 -0 -0 0 0 0 0 -0 0 0 0 0 0 0 0 0 0 0 0 0 0 0 0 0
0 0 0 0 0 0 0 -0 0 0 0 -0 -0 0 0 0 0 0 -0 -0 -0 -0 -0 -0 -0 -0 -0 -0 -0 -0 -0 -0 -0 -0 -0 0 0 0 0 0 0 0 0 0 0 0 0 0 -0 -0 0 0 0 0
0 0 0 0 -0 -0 -0 0 0 0 0 0 0 0 0 0 -0 -0 0 0 0 0 0 -0 0 0 0 0 0 0 0 0 0 0 0 0 0 0 0 0 0 0 0 0 0 0 0 0 0 0 0 0 0 0
0 -0 -0 -0 -0 -0 -0 -0 -0 -0 -0 -0 -0 -0 -0 -0 -0 0 0 0 0 0 0 0 0 0 0 0 0 0 0 0 0 0 0 0 0 0 0 0 0 0 0 0 0 0 0 0 0 0 0 0 0 0
0 0 0 0 -0 -0 -0 -0 0 0 -0 -0 -0 -0 -0 -0 -0 -0 0 0 0 0 0 0 0 0 0 0 0 0 0 0 0 0 0 0 0 0 0 0 0 0 0 0 0 0 0 0 0 0 0 0 0 0
Wind_Speed_500mb
56 55 54 50 49 51 51 51 53 53 49 49 51 54 53 49 50 49 58 51 52 36 64 57 62 42 30 18 13 17 18 8 6 10 14 26 24 32 41 61 64 55 25 25 26 37 52 36 49 59 61 72 64 63
59 56 54 53 55 53 52 52 55 54 52 52 51 53 55 56 50 51 59 54 53 55 35 26 30 38 40 42 37 20 21 22 11 8 5 8 12 9 15 12 17 40 34 23 35 28 25 42 54 77 84 86 83 81
64 64 61 59 58 55 56 57 56 55 56 57 58 55 54 58 52 51 59 55 48 47 59 62 56 67 52 51 42 35 39 35 17 21 9 7 14 5 11 17 34 23 22 10 29 20 30 54 76 51 51 53 64 69
61 61 67 66 65 61 62 61 55 52 54 58 59 60 57 56 57 52 55 56 56 20 11 26 42 39 50 44 40 45 46 36 41 37 20 16 19 15 23 21 26 26 32 36 53 57 49 47 61 76 71 76 72 73
55 59 60 63 63 64 64 61 54 54 56 58 61 63 61 57 54 55 56 58 59 46 11 14 20 34 43 47 45 41 46 52 44 24 16 19 19 23 22 27 29 31 39 31 39 50 40 40 74 91 82 78 78 68
59 60 60 59 59 60 59 58 53 55 57 61 62 66 60 59 50 45 45 64 69 70 22 8 23 38 46 49 47 44 51 45 38 29 13 26 49 30 19 27 34 58 69 76 52 94 102 97 97 94 74 74 79 74
59 59 57 61 62 61 60 55 56 56 58 62 64 62 58 57 50 53 18 7 9 44 16 7 9 22 50 45 33 33 37 36 32 33 21 30 35 45 27 34 45 73 81 80 68 52 46 52 44 75 78 75 84 95
58 61 59 59 55 53 52 52 54 55 59 63 64 57 52 50 48 54 66 55 36 30 18 7 6 6 15 15 11 19 25 29 29 31 32 20 33 24 27 43 47 29 43 38 50 49 42 62 68 67 79 81 82 88
59 58 58 55 51 49 43 49 52 52 58 54 49 44 43 36 31 44 40 37 56 47 7 4 6 4 13 15 12 9 14 13 28 20 25 27 23 21 10 10 19 29 28 44 62 63 44 50 69 83 78 90 60 74
57 61 55 53 51 49 45 49 45 47 47 41 36 20 10 17 36 23 16 11 20 15 14 7 13 12 18 17 4 4 8 9 9 13 26 13 25 44 12 13 21 33 38 43 54 51 78 85 67 84 92 87 76 82
60 59 55 52 48 47 43 50 42 38 42 37 22 16 16 14 24 13 13 13 6 5 11 14 28 17 14 9 10 13 5 6 7 9 9 8 10 5 10 18 28 35 39 44 44 55 59 67 85 89 104 86 82 85
55 54 50 47 44 41 42 37 33 27 24 14 20 23 21 16 15 12 7 5 9 10 9 7 8 15 11 15 9 10 7 7 12 4 7 9 12 6 15 31 39 45 54 62 58 66 65 69 77 86 91 101 95 93
49 46 45 42 41 37 33 26 27 25 25 24 15 18 15 10 17 11 13 9 7 9 13 10 7 8 8 17 9 8 13 12 1 8 14 21 10 18 39 48 52 55 56 59 73 66 68 77 79 77 90 89 84 85
43 44 38 35 34 31 29 28 24 23 16 6 5 11 12 11 10 11 9 5 5 3 3 5 6 9 10 7 8 9 10 2 8 12 33 8 21 44 58 59 65 71 68 74 71 71 74 76 77 81 79 75 75 78
38 39 26 21 30 34 24 18 18 26 14 9 6 6 8 3 1 1 4 8 3 2 2 4 9 8 7 8 7 9 8 11 12 21 5 21 44 51 61 69 72 74 76 70 72 74 75 75 75 80 69 64 62 54
29 24 25 24 25 22 20 21 16 14 7 8 10 5 3 3 4 5 6 6 6 6 4 5 7 8 15 8 12 14 11 22 17 6 28 43 50 60 67 70 75 75 72 78 77 74 72 69 66 63 54 44 35 22
28 25 32 35 33 26 22 18 13 12 8 7 4 4 8 11 7 5 5 6 11 6 4 5 11 11 6 8 9 4 7 7 20 38 41 42 56 69 74 72 68 70 72 70 68 66 64 58 51 39 37 32 23 15
13 32 26 25 24 19 18 16 11 11 7 5 3 5 8 9 6 6 6 9 6 5 6 3 7 6 7 9 7 6 12 34 38 40 48 57 64 65 64 66 68 67 64 63 60 56 51 46 43 37 30 23 17 17
35 20 16 15 20 13 13 12 7 5 7 8 13 11 11 12 14 9 5 5 6 4 5 5 1 3 4 4 9 30 36 36 51 55 55 57 54 58 63 60 59 53 53 51 46 44 38 31 30 29 23 20 21 21
24 19 19 22 30 10 7 6 6 11 5 7 10 10 10 9 7 15 18 13 9 6 9 6 3 3 9 27 33 40 43 44 48 53 52 56 56 56 54 53 48 40 42 36 33 35 31 27 30 28 26 25 25 27
8 4 13 21 15 6 7 7 9 9 13 12 15 6 9 7 7 8 9 12 10 7 3 3 9 23 29 35 32 35 39 37 39 39 49 54 54 47 49 41 32 30 35 36 38 37 39 39 34 32 31 33 32 33
13 21 20 14 7 7 10 10 10 9 9 14 9 7 7 4 5 5 4 10 6 3 5 14 27 31 31 29 29 27 30 31 28 28 27 27 37 43 45 40 38 38 38 40 40 40 39 38 38 40 42 41 40 41
25 19 9 8 8 10 6 7 5 9 5 6 7 5 4 4 3 4 4 4 1 8 13 17 21 17 17 18 17 19 18 17 19 20 19 18 23 30 43 45 45 46 49 48 46 46 46 44 45 46 46 48 49 51
18 11 14 13 18 6 6 10 8 6 7 4 4 5 3 3 2 2 4 1 4 9 10 13 16 12 13 18 20 25 23 25 26 27 25 26 35 41 47 54 54 50 51 50 52 52 51 51 49 50 51 52 53 54
10 19 14 11 14 8 9 6 8 5 5 4 4 4 3 2 2 1 2 3 1 5 8 9 12 14 17 20 23 25 26 31 35 38 38 38 38 41 46 51 55 57 55 57 58 55 53 50 50 49 50 49 47 46
16 16 11 10 8 7 6 4 6 6 4 3 4 3 2 2 3 4 4 6 4 4 8 12 12 13 16 16 16 17 19 23 26 31 36 38 39 39 39 42 47 51 52 51 49 49 47 46 45 44 43 42 39 37
10 9 10 12 4 5 7 6 4 3 4 3 3 3 2 4 6 3 9 11 10 9 10 12 13 15 17 19 19 18 18 16 14 15 19 24 32 35 35 37 38 37 35 35 36 37 37 37 36 36 34 31 30 29
8 11 7 11 9 9 5 3 3 2 1 2 3 4 3 4 4 8 12 17 15 12 8 5 5 7 10 14 18 18 19 19 14 13 12 16 15 26 29 28 28 28 29 30 28 26 26 26 25 25 24 24 23 21
9 10 4 6 5 5 3 2 2 2 3 3 2 3 4 6 7 11 18 20 17 14 9 4 1 6 12 17 18 19 17 19 19 15 15 19 20 25 26 28 28 27 26 24 26 28 29 28 25 24 23 22 21 20
8 11 3 3 4 2 1 1 2 4 4 7 7 7 8 7 8 16 21 23 21 17 14 11 8 9 15 18 17 17 16 14 18 20 22 24 27 28 30 31 31 31 31 30 29 26 25 24 24 25 25 25 24 23
10 5 2 2 3 2 5 11 9 7 7 6 8 8 8 9 9 18 25 26 26 25 23 20 16 15 16 15 18 20 18 19 24 25 25 26 27 29 31 33 35 35 35 35 35 35 33 31 31 30 29 28 28 29
8 6 2 3 1 3 5 10 3 3 4 4 4 5 7 7 8 6 9 26 36 33 27 25 23 16 20 19 19 22 26 27 26 26 27 30 31 33 35 36 38 40 40 40 39 39 38 38 37 36 36 34 33 33
4 4 4 4 3 3 8 15 7 7 4 4 3 4 4 6 9 5 6 7 12 17 21 22 24 25 27 26 28 30 33 33 32 32 34 38 41 43 46 47 48 50 50 49 46 45 44 43 43 42 41 41 41 40
Wind_Direction_500mb
275 275 275 273 276 280 280 283 278 276 277 279 278 275 275 273 263 259 261 259 246 251 267 274 271 280 266 276 282 5 336 196 279 262 249 243 247 245 244 244 245 236 222 219 234 244 249 219 232 233 244 252 253 256
272 272 271 274 273 273 278 281 280 276 270 273 275 274 270 270 266 260 260 260 257 243 255 259 258 250 247 258 266 259 258 288 290 296 316 328 319 304 358 316 323 249 265 292 266 253 250 232 228 249 257 254 258 263
269 271 272 270 273 272 277 279 278 276 274 272 270 272 273 270 265 258 258 260 253 264 279 253 252 262 264 246 242 244 247 244 259 279 310 291 257 312 289 288 297 291 295 277 331 345 321 311 310 345 357 352 331 325
274 270 265 270 273 273 274 274 268 274 275 275 273 268 268 269 264 259 257 255 251 240 258 263 270 247 252 249 232 243 248 262 269 273 264 266 271 245 274 284 297 284 307 293 292 290 291 306 308 309 307 308 311 309
273 267 268 268 266 267 271 271 271 273 274 275 275 270 263 265 265 260 259 254 251 238 277 273 257 243 260 257 248 236 237 253 259 259 253 259 274 282 270 268 264 273 277 274 277 298 308 313 313 309 309 306 304 301
274 269 269 270 268 270 271 265 266 271 275 276 273 270 262 257 263 259 260 255 251 247 246 248 254 251 255 253 249 241 238 246 247 240 253 241 248 261 268 265 274 281 282 285 289 292 293 296 301 303 309 310 305 302
275 275 275 272 274 268 266 266 269 272 274 275 272 268 260 252 247 233 237 201 187 215 236 243 233 242 240 244 253 250 248 240 230 238 245 259 263 263 269 272 279 275 278 291 300 322 304 303 315 306 308 307 302 298
274 271 273 273 272 268 261 266 270 271 275 274 269 261 256 246 245 245 244 243 245 231 242 268 243 277 235 238 241 226 235 237 241 255 259 254 261 267 270 267 284 338 335 316 324 325 305 300 302 301 306 305 304 300
277 275 272 271 270 265 261 269 271 273 275 274 264 255 237 225 228 240 252 245 235 220 246 209 185 264 188 230 244 244 226 251 253 247 251 262 260 248 318 328 346 347 345 317 316 317 323 315 311 309 310 306 303 296
275 274 270 269 263 263 263 273 269 273 273 270 242 182 197 202 223 231 218 220 213 222 235 224 220 239 202 235 221 245 221 238 244 244 263 241 257 263 73 35 349 335 329 329 327 326 326 316 312 306 302 300 298 296
271 270 265 264 257 261 260 266 265 275 268 241 168 174 186 172 174 191 210 204 155 231 228 238 232 244 242 221 217 219 230 238 238 232 232 242 258 70 19 341 332 326 319 315 302 297 299 296 301 303 301 299 299 297
271 266 260 255 254 259 258 253 251 253 244 204 163 152 168 184 200 213 179 117 208 220 204 217 242 213 220 198 199 193 233 224 247 142 221 249 268 102 351 331 326 328 322 316 314 309 307 303 301 299 297 300 303 306
268 262 255 245 253 248 240 238 238 247 253 233 196 166 166 171 221 216 184 193 220 199 202 201 218 226 204 218 225 213 219 226 39 224 252 262 76 358 338 330 319 324 319 313 314 312 308 305 307 303 301 304 309 305
262 266 241 242 239 222 219 223 231 232 222 256 303 189 196 168 219 201 206 196 175 216 173 204 249 213 203 202 247 230 226 282 244 247 253 280 2 331 329 326 326 323 324 321 319 313 310 311 309 309 308 312 306 309
257 256 227 226 207 206 209 225 211 204 202 216 200 239 213 225 46 26 179 131 49 176 258 229 253 237 212 230 219 242 229 228 237 259 334 344 328 326 323 326 324 321 322 318 316 313 313 315 311 312 320 317 313 311
257 233 205 200 189 181 193 194 187 185 200 207 210 230 168 233 192 113 47 90 6 331 276 242 258 232 226 221 212 219 243 250 271 353 324 322 318 319 319 319 319 320 316 316 317 315 315 316 316 319 320 315 315 323
241 180 174 179 190 201 203 203 186 188 205 197 162 87 59 56 44 47 21 4 336 324 237 262 227 225 322 235 234 21 291 353 332 316 314 313 310 314 317 317 315 314 315 317 315 318 320 325 327 328 331 338 354 1
245 160 192 205 211 214 200 187 191 186 182 44 248 78 82 71 88 61 10 348 349 309 292 303 319 244 250 265 271 17 326 315 309 308 311 312 314 318 318 313 315 318 322 321 324 325 328 330 339 345 346 355 18 52
196 189 186 174 177 173 169 184 194 138 77 101 103 87 88 90 64 58 49 34 58 48 316 340 287 278 319 337 316 317 317 314 311 314 311 316 320 322 322 319 322 328 331 331 334 336 337 338 347 359 9 25 42 63
159 175 171 171 177 171 156 124 116 104 111 116 102 103 92 87 100 53 46 46 53 38 39 36 71 317 287 301 304 300 301 306 309 312 316 323 336 331 330 333 334 337 338 354 5 5 11 22 31 36 45 58 60 66
217 188 174 165 165 156 112 84 77 95 117 94 120 87 95 88 60 42 33 32 60 43 16 293 295 304 306 311 314 315 308 306 301 298 300 309 335 348 342 350 356 13 5 17 12 18 31 36 39 51 61 66 71 79
185 165 145 145 107 89 81 58 91 97 89 123 107 92 83 71 51 39 33 50 66 25 312 308 310 314 319 325 323 316 312 315 317 314 315 328 344 351 354 12 26 33 32 30 36 39 43 47 57 64 69 73 79 84
138 139 101 81 95 59 27 64 78 28 110 109 120 95 73 84 78 75 81 68 64 334 321 326 333 329 317 330 341 346 345 350 351 358 10 19 31 30 32 37 39 42 46 46 51 54 56 59 63 68 73 77 80 84
116 71 40 44 31 58 23 35 37 58 63 70 77 101 87 79 126 76 97 159 329 341 358 9 23 33 42 37 29 33 43 55 51 50 51 55 55 52 52 48 52 53 55 56 56 58 61 63 66 70 73 76 78 80
96 17 24 25 23 30 41 30 16 51 75 39 108 131 113 341 132 107 147 167 309 7 21 40 50 53 52 53 53 50 52 58 57 56 55 57 62 64 60 57 52 51 54 55 54 54 56 58 60 63 66 67 69 73
70 14 31 11 21 37 16 62 40 34 23 80 57 2 318 192 187 198 183 177 170 111 77 68 63 62 49 39 36 36 39 44 47 47 47 45 43 43 42 41 45 46 47 49 48 49 50 52 54 55 58 61 63 65
66 20 28 36 56 85 82 62 40 37 60 56 3 320 232 216 221 180 177 178 165 146 115 92 76 64 55 48 40 27 18 6 354 3 13 22 27 26 26 26 27 27 28 31 36 40 41 42 45 48 50 52 54 56
75 36 54 356 47 42 104 63 47 60 281 292 284 231 241 221 207 180 187 182 170 162 148 109 59 31 20 16 15 13 13 5 357 359 346 358 2 13 15 13 13 11 6 6 10 13 16 17 18 21 22 26 30 31
51 5 20 39 48 50 57 122 206 237 262 211 259 267 267 254 246 205 187 184 184 187 193 205 300 359 354 353 350 351 351 1 10 7 8 11 10 7 6 3 0 359 359 0 357 354 354 354 355 354 353 351 348 343
13 8 67 73 91 22 74 234 328 306 267 245 264 281 279 270 241 210 203 202 205 212 224 235 262 302 330 336 342 344 345 347 355 357 356 353 351 352 353 352 352 352 351 349 347 347 344 341 340 339 337 335 332 330
348 355 82 68 121 113 326 315 293 266 264 263 264 260 283 300 271 238 227 224 226 232 238 244 259 280 310 326 331 340 348 342 340 336 335 339 344 347 349 349 347 346 343 339 337 336 334 332 330 328 326 325 323 320
8 43 78 80 278 327 343 355 287 271 257 262 259 281 298 294 276 251 251 233 236 243 248 252 260 274 287 293 311 322 325 329 326 321 322 325 328 329 330 332 333 332 332 331 328 324 320 317 314 312 310 308 306 304
336 8 28 347 1 21 344 347 11 335 253 262 254 270 256 256 253 262 287 276 259 253 248 252 262 269 279 286 293 302 307 311 311 308 309 310 312 315 315 316 317 318 319 318 317 313 310 308 306 305 304 303 301 299
Wind_Speed_850mb
56 55 54 50 49 51 51 51 53 53 49 49 51 54 53 49 50 49 58 51 52 36 64 57 62 42 30 18 13 17 18 8 6 10 14 26 24 32 41 61 64 55 25 25 26 37 52 36 49 59 61 72 64 63
59 56 54 53 55 53 52 52 55 54 52 52 51 53 55 56 50 51 59 54 53 55 35 26 30 38 40 42 37 20 21 22 11 8 5 8 12 9 15 12 17 40 34 23 35 28 25 42 54 77 84 86 83 81
64 64 61 59 58 55 56 57 56 55 56 57 58 55 54 58 52 51 59 55 48 47 59 62 56 67 52 51 42 35 39 35 17 21 9 7 14 5 11 17 34 23 22 10 29 20 30 54 76 51 51 53 64 69
61 61 67 66 65 61 62 61 55 52 54 58 59 60 57 56 57 52 55 56 56 20 11 26 42 39 50 44 40 45 46 36 41 37 20 16 19 15 23 21 26 26 32 36 53 57 49 47 61 76 71 76 72 73
55 59 60 63 63 64 64 61 54 54 56 58 61 63 61 57 54 55 56 58 59 46 11 14 20 34 43 47 45 41 46 52 44 24 16 19 19 23 22 27 29 31 39 31 39 50 40 40 74 91 82 78 78 68
59 60 60 59 59 60 59 58 53 55 57 61 62 66 60 59 50 45 45 64 69 70 22 8 23 38 46 49 47 44 51 45 38 29 13 26 49 30 19 27 34 58 69 76 52 94 102 97 97 94 74 74 79 74
59 59 57 61 62 61 60 55 56 56 58 62 64 62 58 57 50 53 18 7 9 44 16 7 9 22 50 45 33 33 37 36 32 33 21 30 35 45 27 34 45 73 81 80 68 52 46 52 44 75 78 75 84 95
58 61 59 59 55 53 52 52 54 55 59 63 64 57 52 50 48 54 66 55 36 30 18 7 6 6 15 15 11 19 25 29 29 31 32 20 33 24 27 43 47 29 43 38 50 49 42 62 68 67 79 81 82 88
59 58 58 55 51 49 43 49 52 52 58 54 49 44 43 36 31 44 40 37 56 47 7 4 6 4 13 15 12 9 14 13 28 20 25 27 23 21 10 10 19 29 28 44 62 63 44 50 69 83 78 90 60 74
57 61 55 53 51 49 45 49 45 47 47 41 36 20 10 17 36 23 16 11 20 15 14 7 13 12 18 17 4 4 8 9 9 13 26 13 25 44 12 13 21 33 38 43 54 51 78 85 67 84 92 87 76 82
60 59 55 52 48 47 43 50 42 38 42 37 22 16 16 14 24 13 13 13 6 5 11 14 28 17 14 9 10 13 5 6 7 9 9 8 10 5 10 18 28 35 39 44 44 55 59 67 85 89 104 86 82 85
55 54 50 47 44 41 42 37 33 27 24 14 20 23 21 16 15 12 7 5 9 10 9 7 8 15 11 15 9 10 7 7 12 4 7 9 12 6 15 31 39 45 54 62 58 66 65 69 77 86 91 101 95 93
49 46 45 42 41 37 33 26 27 25 25 24 15 18 15 10 17 11 13 9 7 9 13 10 7 8 8 17 9 8 13 12 1 8 14 21 10 18 39 48 52 55 56 59 73 66 68 77 79 77 90 89 84 85
43 44 38 35 34 31 29 28 24 23 16 6 5 11 12 11 10 11 9 5 5 3 3 5 6 9 10 7 8 9 10 2 8 12 33 8 21 44 58 59 65 71 68 74 71 71 74 76 77 81 79 75 75 78
38 39 26 21 30 34 24 18 18 26 14 9 6 6 8 3 1 1 4 8 3 2 2 4 9 8 7 8 7 9 8 11 12 21 5 21 44 51 61 69 72 74 76 70 72 74 75 75 75 80 69 64 62 54
29 24 25 24 25 22 20 21 16 14 7 8 10 5 3 3 4 5 6 6 6 6 4 5 7 8 15 8 12 14 11 22 17 6 28 43 50 60 67 70 75 75 72 78 77 74 72 69 66 63 54 44 35 22
28 25 32 35 33 26 22 18 13 12 8 7 4 4 8 11 7 5 5 6 11 6 4 5 11 11 6 8 9 4 7 7 20 38 41 42 56 69 74 72 68 70 72 70 68 66 64 58 51 39 37 32 23 15
13 32 26 25 24 19 18 16 11 11 7 5 3 5 8 9 6 6 6 9 6 5 6 3 7 6 7 9 7 6 12 34 38 40 48 57 64 65 64 66 68 67 64 63 60 56 51 46 43 37 30 23 17 17
35 20 16 15 20 13 13 12 7 5 7 8 13 11 11 12 14 9 5 5 6 4 5 5 1 3 4 4 9 30 36 36 51 55 55 57 54 58 63 60 59 53 53 51 46 44 38 31 30 29 23 20 21 21
24 19 19 22 30 10 7 6 6 11 5 7 10 10 10 9 7 15 18 13 9 6 9 6 3 3 9 27 33 40 43 44 48 53 52 56 56 56 54 53 48 40 42 36 33 35 31 27 30 28 26 25 25 27
8 4 13 21 15 6 7 7 9 9 13 12 15 6 9 7 7 8 9 12 10 7 3 3 9 23 29 35 32 35 39 37 39 39 49 54 54 47 49 41 32 30 35 36 38 37 39 39 34 32 31 33 32 33
13 21 20 14 7 7 10 10 10 9 9 14 9 7 7 4 5 5 4 10 6 3 5 14 27 31 31 29 29 27 30 31 28 28 27 27 37 43 45 40 38 38 38 40 40 40 39 38 38 40 42 41 40 41
25 19 9 8 8 10 6 7 5 9 5 6 7 5 4 4 3 4 4 4 1 8 13 17 21 17 17 18 17 19 18 17 19 20 19 18 23 30 43 45 45 46 49 48 46 46 46 44 45 46 46 48 49 51
18 11 14 13 18 6 6 10 8 6 7 4 4 5 3 3 2 2 4 1 4 9 10 13 16 12 13 18 20 25 23 25 26 27 25 26 35 41 47 54 54 50 51 50 52 52 51 51 49 50 51 52 53 54
10 19 14 11 14 8 9 6 8 5 5 4 4 4 3 2 2 1 2 3 1 5 8 9 12 14 17 20 23 25 26 31 35 38 38 38 38 41 46 51 55 57 55 57 58 55 53 50 50 49 50 49 47 46
16 16 11 10 8 7 6 4 6 6 4 3 4 3 2 2 3 4 4 6 4 4 8 12 12 13 16 16 16 17 19 23 26 31 36 38 39 39 39 42 47 51 52 51 49 49 47 46 45 44 43 42 39 37
10 9 10 12 4 5 7 6 4 3 4 3 3 3 2 4 6 3 9 11 10 9 10 12 13 15 17 19 19 18 18 16 14 15 19 24 32 35 35 37 38 37 35 35 36 37 37 37 36 36 34 31 30 29
8 11 7 11 9 9 5 3 3 2 1 2 3 4 3 4 4 8 12 17 15 12 8 5 5 7 10 14 18 18 19 19 14 13 12 16 15 26 29 28 28 28 29 30 28 26 26 26 25 25 24 24 23 21
9 10 4 6 5 5 3 2 2 2 3 3 2 3 4 6 7 11 18 20 17 14 9 4 1 6 12 17 18 19 17 19 19 15 15 19 20 25 26 28 28 27 26 24 26 28 29 28 25 24 23 22 21 20
8 11 3 3 4 2 1 1 2 4 4 7 7 7 8 7 8 16 21 23 21 17 14 11 8 9 15 18 17 17 16 14 18 20 22 24 27 28 30 31 31 31 31 30 29 26 25 24 24 25 25 25 24 23
10 5 2 2 3 2 5 11 9 7 7 6 8 8 8 9 9 18 25 26 26 25 23 20 16 15 16 15 18 20 18 19 24 25 25 26 27 29 31 33 35 35 35 35 35 35 33 31 31 30 29 28 28 29
8 6 2 3 1 3 5 10 3 3 4 4 4 5 7 7 8 6 9 26 36 33 27 25 23 16 20 19 19 22 26 27 26 26 27 30 31 33 35 36 38 40 40 40 39 39 38 38 37 36 36 34 33 33
4 4 4 4 3 3 8 15 7 7 4 4 3 4 4 6 9 5 6 7 12 17 21 22 24 25 27 26 28 30 33 33 32 32 34 38 41 43 46 47 48 50 50 49 46 45 44 43 43 42 41 41 41 40
Wind_Direction_850mb
275 275 275 273 276 280 280 283 278 276 277 279 278 275 275 273 263 259 261 259 246 251 267 274 271 280 266 276 282 5 336 196 279 262 249 243 247 245 244 244 245 236 222 219 234 244 249 219 232 233 244 252 253 256
272 272 271 274 273 273 278 281 280 276 270 273 275 274 270 270 266 260 260 260 257 243 255 259 258 250 247 258 266 259 258 288 290 296 316 328 319 304 358 316 323 249 265 292 266 253 250 232 228 249 257 254 258 263
269 271 272 270 273 272 277 279 278 276 274 272 270 272 273 270 265 258 258 260 253 264 279 253 252 262 264 246 242 244 247 244 259 279 310 291 257 312 289 288 297 291 295 277 331 345 321 311 310 345 357 352 331 325
274 270 265 270 273 273 274 274 268 274 275 275 273 268 268 269 264 259 257 255 251 240 258 263 270 247 252 249 232 243 248 262 269 273 264 266 271 245 274 284 297 284 307 293 292 290 291 306 308 309 307 308 311 309
273 267 268 268 266 267 271 271 271 273 274 275 275 270 263 265 265 260 259 254 251 238 277 273 257 243 260 257 248 236 237 253 259 259 253 259 274 282 270 268 264 273 277 274 277 298 308 313 313 309 309 306 304 301
274 269 269 270 268 270 271 265 266 271 275 276 273 270 262 257 263 259 260 255 251 247 246 248 254 251 255 253 249 241 238 246 247 240 253 241 248 261 268 265 274 281 282 285 289 292 293 296 301 303 309 310 305 302
275 275 275 272 274 268 266 266 269 272 274 275 272 268 260 252 247 233 237 201 187 215 236 243 233 242 240 244 253 250 248 240 230 238 245 259 263 263 269 272 279 275 278 291 300 322 304 303 315 306 308 307 302 298
274 271 273 273 272 268 261 266 270 271 275 274 269 261 256 246 245 245 244 243 245 231 242 268 243 277 235 238 241 226 235 237 241 255 259 254 261 267 270 267 284 338 335 316 324 325 305 300 302 301 306 305 304 300
277 275 272 271 270 265 261 269 271 273 275 274 264 255 237 225 228 240 252 245 235 220 246 209 185 264 188 230 244 244 226 251 253 247 251 262 260 248 318 328 346 347 345 317 316 317 323 315 311 309 310 306 303 296
275 274 270 269 263 263 263 273 269 273 273 270 242 182 197 202 223 231 218 220 213 222 235 224 220 239 202 235 221 245 221 238 244 244 263 241 257 263 73 35 349 335 329 329 327 326 326 316 312 306 302 300 298 296
271 270 265 264 257 261 260 266 265 275 268 241 168 174 186 172 174 191 210 204 155 231 228 238 232 244 242 221 217 219 230 238 238 232 232 242 258 70 19 341 332 326 319 315 302 297 299 296 301 303 301 299 299 297
271 266 260 255 254 259 258 253 251 253 244 204 163 152 168 184 200 213 179 117 208 220 204 217 242 213 220 198 199 193 233 224 247 142 221 249 268 102 351 331 326 328 322 316 314 309 307 303 301 299 297 300 303 306
268 262 255 245 253 248 240 238 238 247 253 233 196 166 166 171 221 216 184 193 220 199 202 201 218 226 204 218 225 213 219 226 39 224 252 262 76 358 338 330 319 324 319 313 314 312 308 305 307 303 301 304 309 305
262 266 241 242 239 222 219 223 231 232 222 256 303 189 196 168 219 201 206 196 175 216 173 204 249 213 203 202 247 230 226 282 244 247 253 280 2 331 329 326 326 323 324 321 319 313 310 311 309 309 308 312 306 309
257 256 227 226 207 206 209 225 211 204 202 216 200 239 213 225 46 26 179 131 49 176 258 229 253 237 212 230 219 242 229 228 237 259 334 344 328 326 323 326 324 321 322 318 316 313 313 315 311 312 320 317 313 311
257 233 205 200 189 181 193 194 187 185 200 207 210 230 168 233 192 113 47 90 6 331 276 242 258 232 226 221 212 219 243 250 271 353 324 322 318 319 319 319 319 320 316 316 317 315 315 316 316 319 320 315 315 323
241 180 174 179 190 201 203 203 186 188 205 197 162 87 59 56 44 47 21 4 336 324 237 262 227 225 322 235 234 21 291 353 332 316 314 313 310 314 317 317 315 314 315 317 315 318 320 325 327 328 331 338 354 1
245 160 192 205 211 214 200 187 191 186 182 44 248 78 82 71 88 61 10 348 349 309 292 303 319 244 250 265 271 17 326 315 309 308 311 312 314 318 318 313 315 318 322 321 324 325 328 330 339 345 346 355 18 52
196 189 186 174 177 173 169 184 194 138 77 101 103 87 88 90 64 58 49 34 58 48 316 340 287 278 319 337 316 317 317 314 311 314 311 316 320 322 322 319 322 328 331 331 334 336 337 338 347 359 9 25 42 63
159 175 171 171 177 171 156 124 116 104 111 116 102 103 92 87 100 53 46 46 53 38 39 36 71 317 287 301 304 300 301 306 309 312 316 323 336 331 330 333 334 337 338 354 5 5 11 22 31 36 45 58 60 66
217 188 174 165 165 156 112 84 77 95 117 94 120 87 95 88 60 42 33 32 60 43 16 293 295 304 306 311 314 315 308 306 301 298 300 309 335 348 342 350 356 13 5 17 12 18 31 36 39 51 61 66 71 79
185 165 145 145 107 89 81 58 91 97 89 123 107 92 83 71 51 39 33 50 66 25 312 308 310 314 319 325 323 316 312 315 317 314 315 328 344 351 354 12 26 33 32 30 36 39 43 47 57 64 69 73 79 84
138 139 101 81 95 59 27 64 78 28 110 109 120 95 73 84 78 75 81 68 64 334 321 326 333 329 317 330 341 346 345 350 351 358 10 19 31 30 32 37 39 42 46 46 51 54 56 59 63 68 73 77 80 84
116 71 40 44 31 58 23 35 37 58 63 70 77 101 87 79 126 76 97 159 329 341 358 9 23 33 42 37 29 33 43 55 51 50 51 55 55 52 52 48 52 53 55 56 56 58 61 63 66 70 73 76 78 80
96 17 24 25 23 30 41 30 16 51 75 39 108 131 113 341 132 107 147 167 309 7 21 40 50 53 52 53 53 50 52 58 57 56 55 57 62 64 60 57 52 51 54 55 54 54 56 58 60 63 66 67 69 73
70 14 31 11 21 37 16 62 40 34 23 80 57 2 318 192 187 198 183 177 170 111 77 68 63 62 49 39 36 36 39 44 47 47 47 45 43 43 42 41 45 46 47 49 48 49 50 52 54 55 58 61 63 65
66 20 28 36 56 85 82 62 40 37 60 56 3 320 232 216 221 180 177 178 165 146 115 92 76 64 55 48 40 27 18 6 354 3 13 22 27 26 26 26 27 27 28 31 36 40 41 42 45 48 50 52 54 56
75 36 54 356 47 42 104 63 47 60 281 292 284 231 241 221 207 180 187 182 170 162 148 109 59 31 20 16 15 13 13 5 357 359 346 358 2 13 15 13 13 11 6 6 10 13 16 17 18 21 22 26 30 31
51 5 20 39 48 50 57 122 206 237 262 211 259 267 267 254 246 205 187 184 184 187 193 205 300 359 354 353 350 351 351 1 10 7 8 11 10 7 6 3 0 359 359 0 357 354 354 354 355 354 353 351 348 343
13 8 67 73 91 22 74 234 328 306 267 245 264 281 279 270 241 210 203 202 205 212 224 235 262 302 330 336 342 344 345 347 355 357 356 353 351 352 353 352 352 352 351 349 347 347 344 341 340 339 337 335 332 330
348 355 82 68 121 113 326 315 293 266 264 263 264 260 283 300 271 238 227 224 226 232 238 244 259 280 310 326 331 340 348 342 340 336 335 339 344 347 349 349 347 346 343 339 337 336 334 332 330 328 326 325 323 320
8 43 78 80 278 327 343 355 287 271 257 262 259 281 298 294 276 251 251 233 236 243 248 252 260 274 287 293 311 322 325 329 326 321 322 325 328 329 330 332 333 332 332 331 328 324 320 317 314 312 310 308 306 304
336 8 28 347 1 21 344 347 11 335 253 262 254 270 256 256 253 262 287 276 259 253 248 252 262 269 279 286 293 302 307 311 311 308 309 310 312 315 315 316 317 318 319 318 317 313 310 308 306 305 304 303 301 299